Location: Moscow
(55.7500°N, 37.5830°E)
Time: 15:52:29
(UTC+03:00)

Transit 2A - Pass Details

Date: 06 December 2021
Orbit: 591 x 967 km, 66.7° (Epoch: 17 January)

Event Time Altitude Azimuth Distance (km) Brightness Sun altitude
Rises 22:18:57 0° 149° (SSE) 3,371 - -49.9°
Reaches altitude 10° 22:23:05 10° 119° (ESE) 2,531 - -50.3°
Maximum altitude 22:25:08 12° 99° (E) 2,436 - -50.5°
Drops below altitude 10° 22:27:14 10° 79° (ENE) 2,611 - -50.8°
Sets 22:31:40 0° 50° (NE) 3,621 - -51.2°
